Tracking 28902 objects as of 19-May-2024
HD Live streaming from Space Station
objects crossing your sky now

BRAZILSAT 1

Track BRAZILSAT 1 now!
BRAZILSAT 1 is classified as:


NORAD ID: 15561
Int'l Code: 1985-015B
Perigee: 35,988.3 km
Apogee: 36,004.3 km
Inclination: 14.5 °
Period: 1,446.5 minutes
Semi major axis: 42367 km
RCS: 2.7147 m2 (large)
Launch date: February 8, 1985
Source: Brazil (BRAZ)
Launch site: FRENCH GUIANA (FRGUI)
Your satellite tracking list
Your tracking list is empty




NASA's NSSDC Master Catalog

Two Line Element Set (TLE):
1 15561U 85015B   24139.38062160 -.00000205  00000-0  00000-0 0  9990
2 15561  14.5451 350.5401 0001893  27.1970 345.3470  0.99553588 38789
Source of the keplerian elements: AFSPC